| time (UTC) | temp F | wind direction | speed MPH | gust MPH | rain 1hr in | rain 24hr in | rain mn in | humidity % | barometer mb |
| 20260906083403 | 46 | 220 | 0.0 | 0.0 | 0.00 | 0.00 | 0.00 | 56 | 1019.8 |
| 20260906082904 | 46 | 220 | 0.0 | 0.0 | 0.00 | 0.00 | 0.00 | 56 | 1019.9 |
| 20260906082404 | 46 | 220 | 0.0 | 0.0 | 0.00 | 0.00 | 0.00 | 56 | 1019.9 |
| 20260906081404 | 47 | 220 | 0.0 | 0.0 | 0.00 | 0.00 | 0.00 | 55 | 1019.8 |
| 20260906080904 | 47 | 220 | 0.0 | 0.0 | 0.00 | 0.00 | 0.00 | 55 | 1019.8 |
| 20260906080404 | 47 | 220 | 0.0 | 0.0 | 0.00 | 0.00 | 0.00 | 55 | 1019.8 |
| 20260906074904 | 47 | 220 | 0.0 | 0.0 | 0.00 | 0.00 | 0.00 | 55 | 1019.7 |
| 20260906074404 | 47 | 220 | 0.0 | 0.0 | 0.00 | 0.00 | 0.00 | 54 | 1019.8 |
| 20260906073905 | 47 | 220 | 0.0 | 0.0 | 0.00 | 0.00 | 0.00 | 54 | 1019.8 |
| 20260906073404 | 47 | 220 | 0.0 | 0.0 | 0.00 | 0.00 | 0.00 | 53 | 1019.8 |
| 20260906072904 | 47 | 220 | 0.0 | 0.0 | 0.00 | 0.00 | 0.00 | 53 | 1019.7 |
| 20260906071404 | 47 | 220 | 0.0 | 0.0 | 0.00 | 0.00 | 0.00 | 53 | 1019.7 |
| 20260906070404 | 48 | 220 | 0.0 | 0.0 | 0.00 | 0.00 | 0.00 | 55 | 1019.7 |
| 20260906065904 | 48 | 220 | 0.0 | 0.0 | 0.00 | 0.00 | 0.00 | 53 | 1019.7 |
| 20260906065404 | 48 | 220 | 0.0 | 0.0 | 0.00 | 0.00 | 0.00 | 53 | 1019.6 |
| 20260906064405 | 48 | 220 | 0.0 | 0.0 | 0.00 | 0.00 | 0.00 | 53 | 1019.6 |
| 20260906062904 | 48 | 220 | 0.0 | 0.0 | 0.00 | 0.00 | 0.00 | 53 | 1019.7 |
| 20260906062404 | 48 | 220 | 0.0 | 0.0 | 0.00 | 0.00 | 0.00 | 52 | 1019.8 |
| 20260906061904 | 48 | 220 | 0.0 | 0.0 | 0.00 | 0.00 | 0.00 | 53 | 1019.7 |
| 20260906061404 | 49 | 220 | 0.0 | 0.0 | 0.00 | 0.00 | 0.00 | 52 | 1019.6 |
| 20260906060404 | 49 | 220 | 0.0 | 0.0 | 0.00 | 0.00 | 0.00 | 53 | 1019.6 |
| 20260906055904 | 49 | 220 | 0.0 | 0.0 | 0.00 | 0.00 | 0.00 | 53 | 1019.8 |
| 20260906055404 | 49 | 220 | 0.0 | 0.0 | 0.00 | 0.00 | 0.00 | 53 | 1019.6 |
| 20260906054904 | 49 | 220 | 0.0 | 0.0 | 0.00 | 0.00 | 0.00 | 53 | 1019.7 |
| 20260906054404 | 49 | 220 | 0.0 | 0.0 | 0.00 | 0.00 | 0.00 | 52 | 1019.7 |
| 20260906053904 | 49 | 220 | 0.0 | 0.0 | 0.00 | 0.00 | 0.00 | 53 | 1019.8 |
| 20260906053404 | 49 | 220 | 0.0 | 0.0 | 0.00 | 0.00 | 0.00 | 51 | 1019.8 |
| 20260906051904 | 49 | 220 | 0.0 | 0.0 | 0.00 | 0.00 | 0.00 | 52 | 1019.9 |
| 20260906050904 | 50 | 220 | 0.0 | 0.0 | 0.00 | 0.00 | 0.00 | 52 | 1019.9 |
| 20260906050404 | 50 | 220 | 0.0 | 0.0 | 0.00 | 0.00 | 0.00 | 51 | 1019.9 |
| 20260906045904 | 50 | 220 | 0.0 | 0.0 | 0.00 | 0.00 | 0.00 | 49 | 1020.0 |
| 20260906045404 | 50 | 220 | 0.0 | 0.0 | 0.00 | 0.00 | 0.00 | 47 | 1019.9 |
| 20260906044904 | 51 | 220 | 0.0 | 0.0 | 0.00 | 0.00 | 0.00 | 47 | 1019.9 |
| 20260906044404 | 51 | 220 | 0.0 | 0.0 | 0.00 | 0.00 | 0.00 | 48 | 1019.9 |
| 20260906043404 | 51 | 220 | 0.0 | 0.0 | 0.00 | 0.00 | 0.00 | 48 | 1019.9 |
| 20260906042904 | 52 | 220 | 0.0 | 0.0 | 0.00 | 0.00 | 0.00 | 46 | 1019.9 |
| 20260906042404 | 52 | 220 | 0.0 | 0.0 | 0.00 | 0.00 | 0.00 | 46 | 1019.9 |
| 20260906041904 | 52 | 220 | 0.0 | 0.0 | 0.00 | 0.00 | 0.00 | 46 | 1019.9 |
| 20260906041404 | 53 | 220 | 0.0 | 0.0 | 0.00 | 0.00 | 0.00 | 45 | 1019.9 |
| 20260906040904 | 53 | 220 | 0.0 | 0.0 | 0.00 | 0.00 | 0.00 | 44 | 1019.9 |
| 20260906035904 | 54 | 220 | 0.0 | 0.0 | 0.00 | 0.00 | 0.00 | 43 | 1019.7 |
| 20260906035405 | 54 | 220 | 0.0 | 0.0 | 0.00 | 0.00 | 0.00 | 43 | 1019.7 |
| 20260906034904 | 55 | 220 | 0.0 | 0.0 | 0.00 | 0.00 | 0.00 | 44 | 1019.7 |
| 20260906034404 | 55 | 220 | 0.0 | 0.0 | 0.00 | 0.00 | 0.00 | 41 | 1019.6 |
| 20260906033904 | 56 | 220 | 0.0 | 0.0 | 0.00 | 0.00 | 0.00 | 40 | 1019.6 |
| 20260906033404 | 56 | 220 | 0.0 | 0.0 | 0.00 | 0.00 | 0.00 | 41 | 1019.6 |
| 20260906032904 | 57 | 220 | 0.0 | 0.0 | 0.00 | 0.00 | 0.00 | 40 | 1019.5 |
| 20260906031904 | 58 | 220 | 0.0 | 0.0 | 0.00 | 0.00 | 0.00 | 36 | 1019.5 |
| 20260906031404 | 58 | 220 | 0.0 | 0.0 | 0.00 | 0.00 | 0.00 | 36 | 1019.5 |
| 20260906030904 | 59 | 220 | 0.0 | 0.0 | 0.00 | 0.00 | 0.00 | 36 | 1019.4 |
| 20260906030407 | 59 | 220 | 0.0 | 0.0 | 0.00 | 0.00 | 0.00 | 36 | 1019.3 |
| 20260906025405 | 60 | 220 | 0.0 | 0.0 | 0.00 | 0.00 | 0.00 | 32 | 1019.1 |
| 20260906024904 | 61 | 220 | 0.0 | 0.0 | 0.00 | 0.00 | 0.00 | 31 | 1019.0 |
| 20260906023904 | 63 | 220 | 0.0 | 0.0 | 0.00 | 0.00 | 0.00 | 31 | 1018.8 |
| 20260906023404 | 64 | 220 | 0.0 | 0.0 | 0.00 | 0.00 | 0.00 | 31 | 1018.6 |
| 20260906022904 | 65 | 220 | 0.0 | 0.0 | 0.00 | 0.00 | 0.00 | 32 | 1018.4 |
| 20260906022404 | 66 | 220 | 0.0 | 0.0 | 0.00 | 0.00 | 0.00 | 30 | 1018.3 |
| 20260906021904 | 67 | 220 | 0.0 | 0.0 | 0.00 | 0.00 | 0.00 | 27 | 1018.2 |
| 20260906021404 | 68 | 220 | 0.0 | 0.0 | 0.00 | 0.00 | 0.00 | 21 | 1018.1 |
| 20260906020404 | 69 | 220 | 0.0 | 0.0 | 0.00 | 0.00 | 0.00 | 19 | 1018.0 |
| 20260906014904 | 71 | 220 | 0.0 | 0.0 | 0.00 | 0.00 | 0.00 | 15 | 1017.8 |
| 20260906014404 | 72 | 220 | 0.0 | 0.0 | 0.00 | 0.00 | 0.00 | 15 | 1017.8 |
| 20260906013904 | 73 | 220 | 0.0 | 0.0 | 0.00 | 0.00 | 0.00 | 17 | 1017.8 |
| 20260906012904 | 75 | 220 | 0.0 | 0.0 | 0.00 | 0.00 | 0.00 | 15 | 1017.8 |
| 20260906012404 | 76 | 220 | 0.0 | 0.0 | 0.00 | 0.00 | 0.00 | 10 | 1017.8 |
| 20260906011904 | 77 | 220 | 0.0 | 0.0 | 0.00 | 0.00 | 0.00 | 13 | 1017.7 |
| 20260906011404 | 78 | 220 | 0.0 | 0.0 | 0.00 | 0.00 | 0.00 | 8 | 1017.7 |
| 20260906010904 | 78 | 220 | 0.0 | 0.0 | 0.00 | 0.00 | 0.00 | 5 | 1017.7 |
| 20260906005404 | 79 | 221 | 1.0 | 7.0 | 0.00 | 0.00 | 0.00 | 4 | 1017.6 |
| 20260906004904 | 79 | 229 | 0.0 | 5.0 | 0.00 | 0.00 | 0.00 | 4 | 1017.6 |
| 20260906003904 | 80 | 221 | 2.0 | 5.0 | 0.00 | 0.00 | 0.00 | 2 | 1017.7 |
| 20260906002904 | 80 | 234 | 2.0 | 9.0 | 0.00 | 0.00 | 0.00 | 2 | 1017.6 |
| 20260906002403 | 81 | 217 | 1.0 | 10.0 | 0.00 | 0.00 | 0.00 | 1 | 1017.6 |
| 20260906001904 | 81 | 220 | 1.0 | 5.0 | 0.00 | 0.00 | 0.00 | 2 | 1017.6 |
| 20260906001404 | 82 | 225 | 1.0 | 5.0 | 0.00 | 0.00 | 0.00 | 2 | 1017.6 |
| 20260906000904 | 82 | 225 | 7.0 | 17.0 | 0.00 | 0.00 | 0.00 | 1 | 1017.7 |
| 20260906000404 | 82 | 225 | 5.0 | 10.0 | 0.00 | 0.00 | 0.00 | 1 | 1017.7 |
| 20260905235404 | 83 | 231 | 2.0 | 10.0 | 0.00 | 0.00 | 0.00 | 1 | 1017.6 |
| 20260905234904 | 83 | 219 | 2.0 | 3.0 | 0.00 | 0.00 | 0.00 | 1 | 1017.7 |
| 20260905234404 | 83 | 213 | 1.0 | 6.0 | 0.00 | 0.00 | 0.00 | 1 | 1017.8 |
| 20260905233904 | 83 | 136 | 2.0 | 9.0 | 0.00 | 0.00 | 0.00 | 1 | 1017.7 |
| 20260905233403 | 83 | 147 | 2.0 | 8.0 | 0.00 | 0.00 | 0.00 | 1 | 1017.7 |
| 20260905232904 | 83 | 227 | 2.0 | 7.0 | 0.00 | 0.00 | 0.00 | 1 | 1017.7 |
| 20260905232404 | 83 | 229 | 5.0 | 12.0 | 0.00 | 0.00 | 0.00 | 1 | 1017.7 |
| 20260905231904 | 83 | 223 | 5.0 | 6.0 | 0.00 | 0.00 | 0.00 | 1 | 1017.7 |
| 20260905231404 | 83 | 223 | 3.0 | 9.0 | 0.00 | 0.00 | 0.00 | 1 | 1017.6 |
| 20260905230404 | 83 | 233 | 4.0 | 13.0 | 0.00 | 0.00 | 0.00 | 1 | 1017.6 |
| 20260905225904 | 83 | 230 | 7.0 | 15.0 | 0.00 | 0.00 | 0.00 | 1 | 1017.6 |
| 20260905224904 | 83 | 255 | 3.0 | 15.0 | 0.00 | 0.00 | 0.00 | 2 | 1017.6 |
| 20260905223904 | 83 | 233 | 8.0 | 20.0 | 0.00 | 0.00 | 0.00 | 1 | 1017.8 |
| 20260905222404 | 83 | 215 | 4.0 | 20.0 | 0.00 | 0.00 | 0.00 | 3 | 1017.7 |
| 20260905221904 | 83 | 207 | 5.0 | 12.0 | 0.00 | 0.00 | 0.00 | 3 | 1017.8 |
| 20260905221404 | 82 | 224 | 5.0 | 12.0 | 0.00 | 0.00 | 0.00 | 3 | 1017.7 |
| 20260905220904 | 82 | 223 | 6.0 | 20.0 | 0.00 | 0.00 | 0.00 | 2 | 1017.9 |
| 20260905220404 | 82 | 220 | 6.0 | 20.0 | 0.00 | 0.00 | 0.00 | 3 | 1017.9 |
| 20260905215904 | 82 | 237 | 9.0 | 16.0 | 0.00 | 0.00 | 0.00 | 3 | 1017.9 |
| 20260905215404 | 82 | 259 | 1.0 | 15.0 | 0.00 | 0.00 | 0.00 | 3 | 1017.9 |
| 20260905214904 | 82 | 219 | 5.0 | 14.0 | 0.00 | 0.00 | 0.00 | 4 | 1017.8 |
| 20260905214404 | 82 | 220 | 3.0 | 9.0 | 0.00 | 0.00 | 0.00 | 4 | 1017.9 |
| 20260905213904 | 82 | 225 | 4.0 | 12.0 | 0.00 | 0.00 | 0.00 | 4 | 1017.9 |
| 20260905213404 | 81 | 230 | 10.0 | 13.0 | 0.00 | 0.00 | 0.00 | 4 | 1017.9 |
| 20260905212904 | 81 | 243 | 4.0 | 14.0 | 0.00 | 0.00 | 0.00 | 5 | 1017.9 |
| 20260905212404 | 81 | 232 | 3.0 | 10.0 | 0.00 | 0.00 | 0.00 | 4 | 1018.0 |
| 20260905210904 | 81 | 217 | 7.0 | 12.0 | 0.00 | 0.00 | 0.00 | 5 | 1018.1 |
| 20260905210404 | 81 | 217 | 7.0 | 15.0 | 0.00 | 0.00 | 0.00 | 5 | 1018.2 |
| 20260905205904 | 81 | 230 | 4.0 | 16.0 | 0.00 | 0.00 | 0.00 | 7 | 1018.2 |
| 20260905205404 | 81 | 211 | 6.0 | 15.0 | 0.00 | 0.00 | 0.00 | 6 | 1018.2 |
| 20260905204904 | 81 | 236 | 5.0 | 15.0 | 0.00 | 0.00 | 0.00 | 6 | 1018.3 |
| 20260905204404 | 81 | 208 | 6.0 | 12.0 | 0.00 | 0.00 | 0.00 | 5 | 1018.4 |
| 20260905203904 | 81 | 222 | 6.0 | 17.0 | 0.00 | 0.00 | 0.00 | 5 | 1018.3 |
| 20260905203404 | 81 | 236 | 6.0 | 12.0 | 0.00 | 0.00 | 0.00 | 5 | 1018.3 |
| 20260905202904 | 81 | 231 | 6.0 | 13.0 | 0.00 | 0.00 | 0.00 | 7 | 1018.3 |
| 20260905202405 | 81 | 228 | 7.0 | 20.0 | 0.00 | 0.00 | 0.00 | 6 | 1018.4 |
| 20260905201904 | 81 | 221 | 3.0 | 12.0 | 0.00 | 0.00 | 0.00 | 6 | 1018.3 |
| 20260905201404 | 81 | 229 | 10.0 | 20.0 | 0.00 | 0.00 | 0.00 | 7 | 1018.4 |
| 20260905195904 | 80 | 221 | 6.0 | 14.0 | 0.00 | 0.00 | 0.00 | 7 | 1018.6 |
| 20260905195404 | 80 | 230 | 10.0 | 20.0 | 0.00 | 0.00 | 0.00 | 7 | 1018.6 |
| 20260905194904 | 80 | 231 | 10.0 | 18.0 | 0.00 | 0.00 | 0.00 | 6 | 1018.6 |
| 20260905193904 | 80 | 220 | 8.0 | 15.0 | 0.00 | 0.00 | 0.00 | 7 | 1018.5 |
| 20260905193404 | 80 | 225 | 5.0 | 12.0 | 0.00 | 0.00 | 0.00 | 6 | 1018.5 |
| 20260905192904 | 80 | 237 | 2.0 | 14.0 | 0.00 | 0.00 | 0.00 | 7 | 1018.7 |
| 20260905192404 | 80 | 219 | 3.0 | 10.0 | 0.00 | 0.00 | 0.00 | 8 | 1018.7 |
| 20260905191904 | 80 | 233 | 8.0 | 13.0 | 0.00 | 0.00 | 0.00 | 8 | 1018.9 |
| 20260905191404 | 80 | 230 | 6.0 | 17.0 | 0.00 | 0.00 | 0.00 | 8 | 1018.9 |
| 20260905190404 | 79 | 218 | 6.0 | 12.0 | 0.00 | 0.00 | 0.00 | 9 | 1018.9 |
| 20260905185904 | 79 | 245 | 5.0 | 13.0 | 0.00 | 0.00 | 0.00 | 8 | 1019.0 |
| 20260905185404 | 79 | 223 | 3.0 | 15.0 | 0.00 | 0.00 | 0.00 | 9 | 1019.0 |
| 20260905184904 | 78 | 235 | 12.0 | 24.0 | 0.00 | 0.00 | 0.00 | 8 | 1019.1 |
| 20260905184404 | 78 | 224 | 8.0 | 15.0 | 0.00 | 0.00 | 0.00 | 8 | 1019.1 |
| 20260905183404 | 78 | 237 | 8.0 | 17.0 | 0.00 | 0.00 | 0.00 | 9 | 1019.2 |
| 20260905182904 | 78 | 219 | 7.0 | 15.0 | 0.00 | 0.00 | 0.00 | 10 | 1019.3 |
| 20260905181904 | 78 | 212 | 9.0 | 18.0 | 0.00 | 0.00 | 0.00 | 10 | 1019.3 |
| 20260905181404 | 78 | 229 | 3.0 | 9.0 | 0.00 | 0.00 | 0.00 | 11 | 1019.3 |
| 20260905180904 | 78 | 240 | 0.0 | 14.0 | 0.00 | 0.00 | 0.00 | 12 | 1019.3 |
| 20260905180404 | 78 | 226 | 2.0 | 9.0 | 0.00 | 0.00 | 0.00 | 13 | 1019.4 |
| 20260905175903 | 77 | 232 | 5.0 | 12.0 | 0.00 | 0.00 | 0.00 | 13 | 1019.4 |
| 20260905175404 | 77 | 237 | 2.0 | 9.0 | 0.00 | 0.00 | 0.00 | 15 | 1019.5 |
| 20260905174404 | 76 | 231 | 2.0 | 8.0 | 0.00 | 0.00 | 0.00 | 14 | 1019.5 |
| 20260905173904 | 76 | 213 | 3.0 | 12.0 | 0.00 | 0.00 | 0.00 | 15 | 1019.5 |
| 20260905173404 | 76 | 227 | 3.0 | 12.0 | 0.00 | 0.00 | 0.00 | 15 | 1019.5 |
| 20260905172904 | 75 | 234 | 4.0 | 10.0 | 0.00 | 0.00 | 0.00 | 15 | 1019.6 |
| 20260905172404 | 75 | 233 | 3.0 | 9.0 | 0.00 | 0.00 | 0.00 | 17 | 1019.6 |
| 20260905171904 | 74 | 247 | 1.0 | 3.0 | 0.00 | 0.00 | 0.00 | 18 | 1019.6 |
| 20260905171404 | 74 | 337 | 0.0 | 0.0 | 0.00 | 0.00 | 0.00 | 23 | 1019.6 |
| 20260905170904 | 73 | 337 | 0.0 | 0.0 | 0.00 | 0.00 | 0.00 | 23 | 1019.7 |
| 20260905165906 | 71 | 0 | 0.0 | 0.0 | 0.00 | 0.00 | 0.00 | 28 | 1019.9 |
| 20260905165404 | 70 | 0 | 0.0 | 0.0 | 0.00 | 0.00 | 0.00 | 29 | 1019.9 |
| 20260905164904 | 69 | 0 | 0.0 | 0.0 | 0.00 | 0.00 | 0.00 | 32 | 1019.9 |
| 20260905164404 | 68 | 0 | 0.0 | 0.0 | 0.00 | 0.00 | 0.00 | 31 | 1019.9 |
| 20260905162904 | 65 | 0 | 0.0 | 0.0 | 0.00 | 0.00 | 0.00 | 34 | 1020.0 |
| 20260905162404 | 64 | 0 | 0.0 | 0.0 | 0.00 | 0.00 | 0.00 | 35 | 1020.0 |
| 20260905161904 | 64 | 0 | 0.0 | 0.0 | 0.00 | 0.00 | 0.00 | 36 | 1020.0 |
| 20260905160904 | 62 | 0 | 0.0 | 0.0 | 0.00 | 0.00 | 0.00 | 40 | 1020.0 |
| 20260905160404 | 61 | 0 | 0.0 | 0.0 | 0.00 | 0.00 | 0.00 | 42 | 1020.1 |
| 20260905155904 | 60 | 0 | 0.0 | 0.0 | 0.00 | 0.00 | 0.00 | 43 | 1020.1 |
| 20260905155404 | 59 | 0 | 0.0 | 0.0 | 0.00 | 0.00 | 0.00 | 46 | 1020.1 |
| 20260905154904 | 58 | 0 | 0.0 | 0.0 | 0.00 | 0.00 | 0.00 | 46 | 1020.1 |
| 20260905154404 | 57 | 0 | 0.0 | 0.0 | 0.00 | 0.00 | 0.00 | 47 | 1020.2 |
| 20260905153904 | 56 | 0 | 0.0 | 0.0 | 0.00 | 0.00 | 0.00 | 50 | 1020.2 |
| 20260905153405 | 56 | 0 | 0.0 | 0.0 | 0.00 | 0.00 | 0.00 | 52 | 1020.2 |
| 20260905152904 | 54 | 0 | 0.0 | 0.0 | 0.00 | 0.00 | 0.00 | 55 | 1020.3 |
| 20260905152404 | 53 | 0 | 0.0 | 0.0 | 0.00 | 0.00 | 0.00 | 57 | 1020.3 |
| 20260905151904 | 52 | 0 | 0.0 | 0.0 | 0.00 | 0.00 | 0.00 | 58 | 1020.3 |
| 20260905145404 | 47 | 0 | 0.0 | 0.0 | 0.00 | 0.00 | 0.00 | 67 | 1020.5 |
| 20260905144904 | 46 | 0 | 0.0 | 0.0 | 0.00 | 0.00 | 0.00 | 68 | 1020.6 |
| 20260905144404 | 46 | 0 | 0.0 | 0.0 | 0.00 | 0.00 | 0.00 | 68 | 1020.6 |
| 20260905143903 | 45 | 0 | 0.0 | 0.0 | 0.00 | 0.00 | 0.00 | 69 | 1020.7 |
| 20260905142904 | 45 | 0 | 0.0 | 0.0 | 0.00 | 0.00 | 0.00 | 70 | 1020.6 |
| 20260905142404 | 44 | 0 | 0.0 | 0.0 | 0.00 | 0.00 | 0.00 | 71 | 1020.6 |
| 20260905135904 | 43 | 0 | 0.0 | 0.0 | 0.00 | 0.00 | 0.00 | 71 | 1020.6 |
| 20260905135404 | 43 | 0 | 0.0 | 0.0 | 0.00 | 0.00 | 0.00 | 71 | 1020.5 |
| 20260905134904 | 43 | 0 | 0.0 | 0.0 | 0.00 | 0.00 | 0.00 | 71 | 1020.5 |
| 20260905134404 | 43 | 0 | 0.0 | 0.0 | 0.00 | 0.00 | 0.00 | 71 | 1020.5 |
| 20260905133904 | 43 | 0 | 0.0 | 0.0 | 0.00 | 0.00 | 0.00 | 71 | 1020.5 |
| 20260905133404 | 43 | 0 | 0.0 | 0.0 | 0.00 | 0.00 | 0.00 | 69 | 1020.4 |
| 20260905132904 | 43 | 0 | 0.0 | 0.0 | 0.00 | 0.00 | 0.00 | 69 | 1020.3 |
| 20260905131904 | 43 | 0 | 0.0 | 0.0 | 0.00 | 0.00 | 0.00 | 70 | 1020.2 |
| 20260905131404 | 43 | 0 | 0.0 | 0.0 | 0.00 | 0.00 | 0.00 | 70 | 1020.1 |
| 20260905130404 | 43 | 0 | 0.0 | 0.0 | 0.00 | 0.00 | 0.00 | 69 | 1020.1 |
| 20260905125904 | 44 | 0 | 0.0 | 0.0 | 0.00 | 0.00 | 0.00 | 68 | 1020.0 |
| 20260905125404 | 44 | 0 | 0.0 | 0.0 | 0.00 | 0.00 | 0.00 | 67 | 1020.0 |
| 20260905124404 | 44 | 0 | 0.0 | 0.0 | 0.00 | 0.00 | 0.00 | 68 | 1019.9 |
| 20260905123404 | 45 | 0 | 0.0 | 0.0 | 0.00 | 0.00 | 0.00 | 67 | 1019.7 |
| 20260905122904 | 45 | 0 | 0.0 | 0.0 | 0.00 | 0.00 | 0.00 | 67 | 1019.7 |
| 20260905122404 | 45 | 0 | 0.0 | 0.0 | 0.00 | 0.00 | 0.00 | 67 | 1019.6 |
| 20260905121904 | 45 | 0 | 0.0 | 0.0 | 0.00 | 0.00 | 0.00 | 67 | 1019.5 |
| 20260905121404 | 45 | 0 | 0.0 | 0.0 | 0.00 | 0.00 | 0.00 | 67 | 1019.5 |
| 20260905120904 | 45 | 0 | 0.0 | 0.0 | 0.00 | 0.00 | 0.00 | 67 | 1019.5 |
| 20260905120404 | 45 | 0 | 0.0 | 0.0 | 0.00 | 0.00 | 0.00 | 67 | 1019.5 |
| 20260905115904 | 45 | 0 | 0.0 | 0.0 | 0.00 | 0.00 | 0.00 | 67 | 1019.4 |
| 20260905115404 | 45 | 0 | 0.0 | 0.0 | 0.00 | 0.00 | 0.00 | 67 | 1019.5 |
| 20260905114904 | 46 | 0 | 0.0 | 0.0 | 0.00 | 0.00 | 0.00 | 66 | 1019.4 |
| 20260905114404 | 46 | 0 | 0.0 | 0.0 | 0.00 | 0.00 | 0.00 | 66 | 1019.4 |
| 20260905113904 | 46 | 0 | 0.0 | 0.0 | 0.00 | 0.00 | 0.00 | 66 | 1019.5 |
| 20260905112904 | 46 | 0 | 0.0 | 0.0 | 0.00 | 0.00 | 0.00 | 64 | 1019.5 |
| 20260905112404 | 46 | 0 | 0.0 | 0.0 | 0.00 | 0.00 | 0.00 | 64 | 1019.5 |
| 20260905111904 | 46 | 0 | 0.0 | 0.0 | 0.00 | 0.00 | 0.00 | 64 | 1019.3 |
| 20260905111404 | 46 | 0 | 0.0 | 0.0 | 0.00 | 0.00 | 0.00 | 64 | 1019.4 |
| 20260905110904 | 46 | 0 | 0.0 | 0.0 | 0.00 | 0.00 | 0.00 | 63 | 1019.3 |
| 20260905110404 | 46 | 0 | 0.0 | 0.0 | 0.00 | 0.00 | 0.00 | 62 | 1019.3 |
| 20260905105904 | 47 | 0 | 0.0 | 0.0 | 0.00 | 0.00 | 0.00 | 62 | 1019.2 |
| 20260905105404 | 47 | 0 | 0.0 | 0.0 | 0.00 | 0.00 | 0.00 | 62 | 1019.2 |
| 20260905104904 | 47 | 0 | 0.0 | 0.0 | 0.00 | 0.00 | 0.00 | 62 | 1019.2 |
| 20260905104404 | 47 | 0 | 0.0 | 0.0 | 0.00 | 0.00 | 0.00 | 61 | 1019.2 |
| 20260905102904 | 47 | 0 | 0.0 | 0.0 | 0.00 | 0.00 | 0.00 | 61 | 1019.1 |
| 20260905101404 | 48 | 0 | 0.0 | 0.0 | 0.00 | 0.00 | 0.00 | 60 | 1018.9 |
| 20260905100904 | 48 | 0 | 0.0 | 0.0 | 0.00 | 0.00 | 0.00 | 61 | 1018.9 |
| 20260905095904 | 48 | 0 | 0.0 | 0.0 | 0.00 | 0.00 | 0.00 | 61 | 1018.7 |
| 20260905094904 | 48 | 0 | 0.0 | 0.0 | 0.00 | 0.00 | 0.00 | 61 | 1018.7 |
| 20260905094404 | 48 | 0 | 0.0 | 0.0 | 0.00 | 0.00 | 0.00 | 61 | 1018.7 |
| 20260905093904 | 48 | 0 | 0.0 | 0.0 | 0.00 | 0.00 | 0.00 | 60 | 1018.7 |
| 20260905093404 | 48 | 0 | 0.0 | 0.0 | 0.00 | 0.00 | 0.00 | 59 | 1018.6 |
| 20260905092904 | 48 | 0 | 0.0 | 0.0 | 0.00 | 0.00 | 0.00 | 58 | 1018.6 |
| 20260905092404 | 49 | 0 | 0.0 | 0.0 | 0.00 | 0.00 | 0.00 | 58 | 1018.7 |
| 20260905091904 | 49 | 0 | 0.0 | 0.0 | 0.00 | 0.00 | 0.00 | 57 | 1018.8 |
| 20260905091404 | 49 | 0 | 0.0 | 0.0 | 0.00 | 0.00 | 0.00 | 56 | 1018.8 |
| 20260905090904 | 49 | 0 | 0.0 | 0.0 | 0.00 | 0.00 | 0.00 | 55 | 1018.7 |
| 20260905090404 | 49 | 0 | 0.0 | 0.0 | 0.00 | 0.00 | 0.00 | 56 | 1018.6 |
| 20260905085904 | 50 | 0 | 0.0 | 0.0 | 0.00 | 0.00 | 0.00 | 56 | 1018.7 |
| 20260905085404 | 50 | 0 | 0.0 | 0.0 | 0.00 | 0.00 | 0.00 | 55 | 1018.7 |
| 20260905084904 | 50 | 0 | 0.0 | 0.0 | 0.00 | 0.00 | 0.00 | 55 | 1018.5 |
| 20260905084404 | 50 | 0 | 0.0 | 0.0 | 0.00 | 0.00 | 0.00 | 52 | 1018.5 |
| 20260905083904 | 50 | 0 | 0.0 | 0.0 | 0.00 | 0.00 | 0.00 | 52 | 1018.5 |